カタログに戻る

CORVUS BC4

運用中科学SSO
NORAD 43767·PAYLOAD·🇺🇸 United States

打ち上げ Dec 3, 2018 から Vandenberg Space Force Base

Loading…

次のパス (今後24時間)

TLE

最新Source: Space-Track

元期: Sep 14, 2026, 08:25 UTC

1 43767U 18099K   26257.35080709  .00002931  00000-0  16904-3 0  9996
2 43767  97.3986 297.7199 0009544  59.5158 300.7014 15.13092744425888

AllMySatでCORVUS BC4をリアルタイム追跡

Download on the App Store